When you browse on this site, cookies collect data to enhance your experience and personalize the content and advertising you see.
Visit our Privacy Policy to learn more. By continuing to use the site, you agree to this use of cookies and data.
  • In Spain
  • List of Countries
  • For 7 days
  • Water Temperature
  • Weather Map
  • Weather Widgets
  • user-avatar
    Login

    Hourly Weather Astana

    Today, 15 November, Friday

    Time Temperature Precipitation Wind Pressure Humidity
    00:00 -18°C° 0 mm 6 mps 741 mmHg 89%
    01:00 -20°C° 0 mm 6 mps 741 mmHg 89%
    02:00 -21°C° 0 mm 6 mps 741 mmHg 89%
    03:00 -20°C° 0 mm 5 mps 742 mmHg 89%
    04:00 -21°C° 0 mm 5 mps 743 mmHg 89%
    05:00 -22°C° 0 mm 5 mps 744 mmHg 88%
    06:00 -23°C° 0 mm 4 mps 744 mmHg 90%
    07:00 -24°C° 0 mm 4 mps 745 mmHg 92%
    08:00 -24°C° 0 mm 4 mps 745 mmHg 93%
    09:00 -22°C° 0 mm 3 mps 746 mmHg 92%
    10:00 -21°C° 0 mm 3 mps 746 mmHg 91%
    11:00 -19°C° 0 mm 3 mps 747 mmHg 88%
    12:00 -18°C° 0 mm 3 mps 747 mmHg 88%
    13:00 -17°C° 0 mm 2 mps 748 mmHg 88%
    14:00 -17°C° 0 mm 2 mps 748 mmHg 88%
    15:00 -18°C° 0 mm 2 mps 748 mmHg 86%
    16:00 -17°C° 0 mm 1 mps 749 mmHg 84%
    17:00 -20°C° 0 mm 2 mps 749 mmHg 82%
    18:00 -20°C° 0 mm 2 mps 749 mmHg 80%
    19:00 -20°C° 0 mm 2 mps 749 mmHg 78%
    20:00 -20°C° 0 mm 2 mps 749 mmHg 77%
    21:00 -20°C° 0 mm 2 mps 749 mmHg 76%
    22:00 -20°C° 0 mm 2 mps 750 mmHg 75%
    23:00 -19°C° 0 mm 2 mps 750 mmHg 74%

    Tomorrow, 16 November, Saturday

    Time Temperature Precipitation Wind Pressure Humidity
    00:00 -21°C° 0 mm 3 mps 750 mmHg 74%
    01:00 -21°C° 0 mm 3 mps 749 mmHg 74%
    02:00 -21°C° 0 mm 3 mps 749 mmHg 74%
    03:00 -21°C° 0 mm 3 mps 749 mmHg 74%
    04:00 -21°C° 0 mm 3 mps 749 mmHg 74%
    05:00 -19°C° 0 mm 3 mps 749 mmHg 74%
    06:00 -19°C° 0 mm 3 mps 749 mmHg 74%
    07:00 -20°C° 0 mm 4 mps 749 mmHg 74%
    08:00 -20°C° 0 mm 4 mps 748 mmHg 75%
    09:00 -18°C° 0 mm 4 mps 748 mmHg 74%
    10:00 -17°C° 0 mm 5 mps 748 mmHg 73%
    11:00 -15°C° 0 mm 5 mps 748 mmHg 72%
    12:00 -14°C° 0 mm 5 mps 747 mmHg 71%
    13:00 -13°C° 0 mm 5 mps 746 mmHg 71%
    14:00 -12°C° 0 mm 5 mps 746 mmHg 70%
    15:00 -13°C° 0 mm 5 mps 745 mmHg 69%
    16:00 -13°C° 0 mm 5 mps 745 mmHg 68%
    17:00 -13°C° 0 mm 5 mps 745 mmHg 67%
    18:00 -13°C° 0 mm 5 mps 744 mmHg 68%
    19:00 -13°C° 0 mm 5 mps 744 mmHg 68%
    20:00 -13°C° 0 mm 5 mps 744 mmHg 69%
    21:00 -13°C° 0 mm 5 mps 743 mmHg 70%
    22:00 -13°C° 0 mm 5 mps 743 mmHg 71%
    23:00 -13°C° 0 mm 5 mps 743 mmHg 72%

    Day after tomorrow, 17 November, Sunday

    Time Temperature Precipitation Wind Pressure Humidity
    00:00 -13°C° 0 mm 5 mps 743 mmHg 74%
    01:00 -14°C° 0 mm 5 mps 743 mmHg 76%
    02:00 -14°C° 0 mm 4 mps 742 mmHg 78%
    03:00 -14°C° 0 mm 4 mps 742 mmHg 80%
    04:00 -14°C° 0 mm 4 mps 742 mmHg 83%
    05:00 -14°C° 0 mm 4 mps 742 mmHg 85%
    06:00 -14°C° 0 mm 4 mps 742 mmHg 86%
    07:00 -14°C° 0 mm 4 mps 741 mmHg 88%
    08:00 -12°C° 0 mm 4 mps 741 mmHg 89%
    09:00 -11°C° 0 mm 4 mps 741 mmHg 89%
    10:00 -11°C° 0 mm 5 mps 741 mmHg 90%
    11:00 -10°C° 0 mm 5 mps 741 mmHg 90%
    12:00 -8°C° 0 mm 5 mps 740 mmHg 88%
    13:00 -9°C° 0 mm 6 mps 740 mmHg 87%
    14:00 -8°C° 0 mm 6 mps 739 mmHg 85%
    15:00 -8°C° 0 mm 6 mps 739 mmHg 82%
    16:00 -9°C° 0 mm 6 mps 738 mmHg 80%
    17:00 -8°C° 0 mm 5 mps 738 mmHg 77%
    18:00 -9°C° 0 mm 6 mps 737 mmHg 76%
    19:00 -8°C° 0 mm 6 mps 737 mmHg 76%
    20:00 -8°C° 0 mm 6 mps 736 mmHg 76%
    21:00 -8°C° 0 mm 6 mps 736 mmHg 78%
    22:00 -8°C° 0 mm 6 mps 736 mmHg 80%
    23:00 -8°C° 0 mm 6 mps 735 mmHg 83%

    18 November, Monday

    Time Temperature Precipitation Wind Pressure Humidity
    00:00 -8°C° 0 mm 6 mps 735 mmHg 84%
    01:00 -8°C° 0 mm 6 mps 734 mmHg 85%
    02:00 -8°C° 0 mm 6 mps 734 mmHg 86%
    03:00 -8°C° 0 mm 6 mps 734 mmHg 89%
    04:00 -8°C° 0 mm 6 mps 734 mmHg 91%
    05:00 -7°C° 0 mm 5 mps 734 mmHg 93%
    06:00 -7°C° 0 mm 5 mps 734 mmHg 93%
    07:00 -7°C° 0 mm 5 mps 734 mmHg 94%
    08:00 -8°C° 0 mm 5 mps 734 mmHg 94%
    09:00 -8°C° 0 mm 5 mps 734 mmHg 94%
    10:00 -8°C° 0 mm 4 mps 734 mmHg 95%
    11:00 -8°C° 0 mm 4 mps 735 mmHg 95%
    12:00 -8°C° 0 mm 4 mps 735 mmHg 95%
    13:00 -8°C° 0 mm 4 mps 735 mmHg 95%
    14:00 -7°C° 0 mm 4 mps 734 mmHg 95%
    15:00 -7°C° 0 mm 4 mps 734 mmHg 95%
    16:00 -8°C° 0 mm 4 mps 734 mmHg 95%
    17:00 -7°C° 0 mm 3 mps 734 mmHg 95%
    18:00 -8°C° 0 mm 4 mps 734 mmHg 95%
    19:00 -7°C° 0 mm 4 mps 733 mmHg 95%
    20:00 -7°C° 0 mm 4 mps 733 mmHg 94%
    21:00 -7°C° 0 mm 4 mps 732 mmHg 95%
    22:00 -7°C° 0 mm 4 mps 732 mmHg 95%
    23:00 -7°C° 0 mm 4 mps 731 mmHg 95%

    19 November, Tuesday

    Time Temperature Precipitation Wind Pressure Humidity
    00:00 -7°C° 0.1 mm 5 mps 730 mmHg 95%
    01:00 -7°C° 0.1 mm 5 mps 729 mmHg 94%
    02:00 -7°C° 0.1 mm 5 mps 729 mmHg 94%
    03:00 -6°C° 0.4 mm 6 mps 728 mmHg 94%
    04:00 -6°C° 0.4 mm 6 mps 727 mmHg 95%
    05:00 -6°C° 0.4 mm 6 mps 726 mmHg 96%
    06:00 -7°C° 0.4 mm 7 mps 725 mmHg 96%
    07:00 -6°C° 0.4 mm 7 mps 725 mmHg 96%
    08:00 -6°C° 0.4 mm 7 mps 724 mmHg 96%
    09:00 -6°C° 0.4 mm 8 mps 724 mmHg 95%
    10:00 -6°C° 0.4 mm 9 mps 723 mmHg 95%
    11:00 -6°C° 0.4 mm 9 mps 723 mmHg 95%
    12:00 -6°C° 0.1 mm 9 mps 722 mmHg 93%
    13:00 -6°C° 0.1 mm 8 mps 722 mmHg 91%
    14:00 -6°C° 0.1 mm 8 mps 722 mmHg 90%
    15:00 -6°C° 0.1 mm 7 mps 722 mmHg 90%
    16:00 -6°C° 0.1 mm 7 mps 722 mmHg 91%
    17:00 -5°C° 0.1 mm 6 mps 722 mmHg 92%
    18:00 -5°C° 0.4 mm 6 mps 721 mmHg 93%
    19:00 -5°C° 0.4 mm 6 mps 721 mmHg 95%
    20:00 -5°C° 0.4 mm 5 mps 721 mmHg 96%
    21:00 -5°C° 0.4 mm 5 mps 720 mmHg 96%
    22:00 -5°C° 0.4 mm 5 mps 720 mmHg 96%
    23:00 -5°C° 0.4 mm 5 mps 720 mmHg 96%

    20 November, Wednesday

    Time Temperature Precipitation Wind Pressure Humidity
    00:00 -5°C° 0.3 mm 5 mps 720 mmHg 96%
    01:00 -5°C° 0.3 mm 4 mps 720 mmHg 96%
    02:00 -5°C° 0.3 mm 4 mps 720 mmHg 96%
    03:00 -8°C° 0.1 mm 4 mps 719 mmHg 96%
    04:00 -9°C° 0.1 mm 3 mps 719 mmHg 96%
    05:00 -9°C° 0.1 mm 2 mps 719 mmHg 96%
    06:00 -13°C° 0.4 mm 3 mps 719 mmHg 95%
    07:00 -17°C° 0.4 mm 5 mps 719 mmHg 95%
    08:00 -18°C° 0.4 mm 6 mps 719 mmHg 95%
    09:00 -21°C° 0.2 mm 6 mps 720 mmHg 94%
    10:00 -24°C° 0.2 mm 7 mps 721 mmHg 93%
    11:00 -26°C° 0.2 mm 7 mps 722 mmHg 92%
    12:00 -27°C° 0 mm 7 mps 723 mmHg 92%
    13:00 -29°C° 0 mm 7 mps 724 mmHg 91%
    14:00 -30°C° 0 mm 7 mps 725 mmHg 90%
    15:00 -31°C° 0 mm 7 mps 725 mmHg 91%
    16:00 -31°C° 0 mm 6 mps 726 mmHg 91%
    17:00 -33°C° 0 mm 6 mps 726 mmHg 91%
    18:00 -33°C° 0 mm 6 mps 726 mmHg 91%
    19:00 -33°C° 0 mm 6 mps 727 mmHg 90%
    20:00 -33°C° 0 mm 6 mps 727 mmHg 90%
    21:00 -33°C° 0 mm 6 mps 727 mmHg 90%
    22:00 -33°C° 0 mm 6 mps 727 mmHg 90%
    23:00 -33°C° 0 mm 6 mps 727 mmHg 90%
    Show more